Brownwood, TX

9:42 AM CST on November 24, 2017 (GMT -0600)
Brownwood Regional

Weather History for KBWD - April, 2014

Change the Weather History Date:

Saturday, April 12, 2014

  Actual Average (KABI) Record (KABI)
Temperature  
Mean Temperature 74 °F -  
Max Temperature 86 °F 72 °F 98 °F (1972)
Min Temperature 62 °F 48 °F 28 °F (1997)
Cooling Degree Days 9    
Growing Degree Days 24 (Base 50)    
Moisture  
Dew Point 58 °F    
Average Humidity 60    
Maximum Humidity 88    
Minimum Humidity 37    
Precipitation  
Precipitation 0.00 in - - ()
Sea Level Pressure  
Sea Level Pressure 29.85 in    
Wind  
Wind Speed 12 mph (South)    
Max Wind Speed 22 mph    
Max Gust Speed 28 mph    
Visibility 10 miles    
Events Thunderstorm    
Averages and records for this station are not official NWS values.
T = Trace of Precipitation, MM = Missing Value Source: NWS Daily Summary

Daily Weather History Graph

Daily Weather History Graph

Search for Another Location

Airport or City:

Trip Planner

Search our weather history database for the weather conditions in past years. The results will help you decide how hot, cold, wet, or windy it might be!

Date:

Astronomy

Apr. 12, 2014 Rise Set
Actual Time 7:10 AM CDT 8:02 PM CDT
Civil Twilight 6:45 AM CDT 8:27 PM CDT
Nautical Twilight 6:16 AM CDT 8:57 PM CDT
Astronomical Twilight 5:46 AM CDT 9:27 PM CDT
Moon 5:50 PM CDT (4/12) 5:28 AM CDT (4/12)
Length of Visible Light 13h 42m
Length of Day
12h 52m
Waxing Gibbous, 93% of the Moon is Illuminated
Apr 12
Waxing Gibbous
Apr 15
Full
Apr 22
Last Quarter
Apr 29
New
May 6
First Quarter

Hourly Weather History & Observations

Time (CDT) Temp. Heat Index Dew Point Humidity Pressure Visibility Wind Dir Wind Speed Gust Speed Precip Events Conditions
12:15 AM 71.6 °F - 55.4 °F 57% 29.92 in 10.0 mi SSE 10.4 mph 16.1 mph N/A   Clear
12:35 AM 71.6 °F - 55.4 °F 57% 29.91 in 10.0 mi SSE 11.5 mph 19.6 mph N/A   Clear
12:55 AM 71.6 °F - 55.4 °F 57% 29.91 in 10.0 mi SSE 10.4 mph - N/A   Clear
1:15 AM 71.6 °F - 57.2 °F 60% 29.91 in 10.0 mi SSE 11.5 mph 17.3 mph N/A   Clear
1:35 AM 69.8 °F - 57.2 °F 64% 29.91 in 10.0 mi SSE 10.4 mph 17.3 mph N/A   Clear
1:55 AM 68.0 °F - 57.2 °F 68% 29.91 in 10.0 mi SSE 10.4 mph 17.3 mph N/A   Clear
2:15 AM 68.0 °F - 57.2 °F 68% 29.92 in 10.0 mi South 10.4 mph - N/A Thunderstorm Clear
2:35 AM 68.0 °F - 57.2 °F 68% 29.92 in 10.0 mi South 9.2 mph - N/A   Clear
2:55 AM 68.0 °F - 57.2 °F 68% 29.91 in 10.0 mi SSE 9.2 mph - N/A   Clear
3:15 AM 66.2 °F - 57.2 °F 73% 29.91 in 10.0 mi South 10.4 mph - N/A   Clear
3:35 AM 66.2 °F - 57.2 °F 73% 29.91 in 10.0 mi North - - N/A   Clear
3:55 AM 66.2 °F - 57.2 °F 73% 29.91 in 10.0 mi North - - N/A   Clear
4:15 AM 64.4 °F - 57.2 °F 77% 29.91 in 10.0 mi SSE 10.4 mph - N/A   Clear
4:35 AM 64.4 °F - 59.0 °F 83% 29.91 in 10.0 mi SSE 10.4 mph - N/A   Clear
4:55 AM 64.4 °F - 59.0 °F 83% 29.90 in 10.0 mi SSE 10.4 mph 17.3 mph N/A   Clear
5:15 AM 64.4 °F - 59.0 °F 83% 29.89 in 10.0 mi SSE 10.4 mph - N/A   Clear
5:35 AM 64.4 °F - 59.0 °F 83% 29.90 in 10.0 mi SSE 8.1 mph - N/A   Clear
5:55 AM 62.6 °F - 59.0 °F 88% 29.90 in 10.0 mi South 10.4 mph - N/A   Clear
6:15 AM 62.6 °F - 59.0 °F 88% 29.90 in 10.0 mi SSE 10.4 mph - N/A   Scattered Clouds
6:35 AM 62.6 °F - 59.0 °F 88% 29.91 in 10.0 mi SSE 9.2 mph - N/A   Mostly Cloudy
6:55 AM 62.6 °F - 59.0 °F 88% 29.91 in 10.0 mi SSE 5.8 mph - N/A   Scattered Clouds
7:15 AM 62.6 °F - 59.0 °F 88% 29.92 in 9.0 mi South 5.8 mph - N/A   Mostly Cloudy
7:35 AM 62.6 °F - 59.0 °F 88% 29.92 in 9.0 mi SSE 8.1 mph - N/A   Scattered Clouds
7:55 AM 62.6 °F - 59.0 °F 88% 29.92 in 9.0 mi South 5.8 mph - N/A   Clear
8:15 AM 62.6 °F - 59.0 °F 88% 29.93 in 9.0 mi South 6.9 mph - N/A   Clear
8:35 AM 64.4 °F - 59.0 °F 83% 29.94 in 9.0 mi South 8.1 mph - N/A   Scattered Clouds
8:55 AM 66.2 °F - 59.0 °F 78% 29.93 in 10.0 mi South 12.7 mph 17.3 mph N/A   Mostly Cloudy
9:15 AM 66.2 °F - 59.0 °F 78% 29.93 in 10.0 mi South 16.1 mph 24.2 mph N/A   Mostly Cloudy
9:35 AM 66.2 °F - 59.0 °F 78% 29.93 in 10.0 mi South 18.4 mph 24.2 mph N/A   Partly Cloudy
9:55 AM 68.0 °F - 57.2 °F 68% 29.93 in 10.0 mi South 18.4 mph 24.2 mph N/A   Clear
10:15 AM 69.8 °F - 57.2 °F 64% 29.92 in 10.0 mi South 18.4 mph 23.0 mph N/A   Clear
10:35 AM 69.8 °F - 57.2 °F 64% 29.93 in 10.0 mi SSE 15.0 mph 25.3 mph N/A   Clear
10:55 AM 71.6 °F - 57.2 °F 60% 29.93 in 10.0 mi South 17.3 mph 25.3 mph N/A   Clear
11:15 AM 71.6 °F - 57.2 °F 60% 29.93 in 10.0 mi South 13.8 mph 25.3 mph N/A   Clear
11:35 AM 73.4 °F - 57.2 °F 57% 29.92 in 10.0 mi South 18.4 mph 24.2 mph N/A   Clear
11:55 AM 75.2 °F - 57.2 °F 53% 29.91 in 10.0 mi South 18.4 mph 25.3 mph N/A   Clear
12:15 PM 75.2 °F - 59.0 °F 57% 29.90 in 10.0 mi South 18.4 mph 25.3 mph N/A   Clear
12:35 PM 77.0 °F - 59.0 °F 54% 29.89 in 10.0 mi South 15.0 mph 24.2 mph N/A   Clear
12:55 PM 78.8 °F - 59.0 °F 51% 29.88 in 10.0 mi SSW 18.4 mph 26.5 mph N/A   Clear
1:15 PM 78.8 °F - 59.0 °F 51% 29.87 in 10.0 mi South 19.6 mph 25.3 mph N/A   Clear
1:35 PM 78.8 °F - 59.0 °F 51% 29.86 in 10.0 mi South 15.0 mph 27.6 mph N/A   Clear
1:55 PM 80.6 °F 81.1 °F 59.0 °F 48% 29.85 in 10.0 mi South 17.3 mph 26.5 mph N/A   Clear
2:15 PM 80.6 °F 81.1 °F 59.0 °F 48% 29.84 in 10.0 mi South 16.1 mph 27.6 mph N/A   Clear
2:35 PM 82.4 °F 82.5 °F 59.0 °F 45% 29.83 in 10.0 mi South 16.1 mph 24.2 mph N/A   Clear
2:55 PM 82.4 °F 82.5 °F 59.0 °F 45% 29.82 in 10.0 mi South 21.9 mph 26.5 mph N/A   Clear
3:15 PM 84.2 °F 83.8 °F 59.0 °F 42% 29.81 in 10.0 mi South 17.3 mph 23.0 mph N/A   Clear
3:35 PM 84.2 °F 83.8 °F 59.0 °F 42% 29.80 in 10.0 mi South 16.1 mph 24.2 mph N/A   Clear
3:55 PM 84.2 °F 83.8 °F 59.0 °F 42% 29.79 in 10.0 mi South 11.5 mph 24.2 mph N/A   Clear
4:15 PM 84.2 °F 83.5 °F 57.2 °F 40% 29.78 in 10.0 mi South 15.0 mph 23.0 mph N/A   Clear
4:35 PM 86.0 °F 84.9 °F 57.2 °F 37% 29.78 in 10.0 mi South 16.1 mph 25.3 mph N/A   Clear
4:55 PM 84.2 °F 83.5 °F 57.2 °F 40% 29.77 in 10.0 mi SSE 13.8 mph 24.2 mph N/A   Clear
5:15 PM 84.2 °F 83.5 °F 57.2 °F 40% 29.76 in 10.0 mi SSE 13.8 mph 27.6 mph N/A   Clear
5:35 PM 84.2 °F 83.5 °F 57.2 °F 40% 29.75 in 10.0 mi SSE 20.7 mph 26.5 mph N/A   Clear
5:55 PM 82.4 °F 82.0 °F 57.2 °F 42% 29.75 in 10.0 mi South 19.6 mph 25.3 mph N/A   Clear
6:15 PM 82.4 °F 82.5 °F 59.0 °F 45% 29.75 in 10.0 mi SSE 15.0 mph 25.3 mph N/A   Clear
6:35 PM 82.4 °F 82.0 °F 57.2 °F 42% 29.74 in 10.0 mi SSE 17.3 mph 27.6 mph N/A   Clear
6:55 PM 82.4 °F 82.0 °F 57.2 °F 42% 29.74 in 10.0 mi South 15.0 mph 27.6 mph N/A   Clear
7:15 PM 80.6 °F 80.8 °F 57.2 °F 45% 29.74 in 10.0 mi SSE 11.5 mph 19.6 mph N/A   Clear
7:35 PM 80.6 °F 81.1 °F 59.0 °F 48% 29.74 in 10.0 mi SSE 13.8 mph 18.4 mph N/A   Clear
7:55 PM 80.6 °F 81.1 °F 59.0 °F 48% 29.75 in 10.0 mi SSE 16.1 mph 23.0 mph N/A   Clear
8:15 PM 80.6 °F 81.1 °F 59.0 °F 48% 29.75 in 10.0 mi SSE 18.4 mph 25.3 mph N/A   Clear
8:35 PM 78.8 °F - 59.0 °F 51% 29.74 in 10.0 mi SSE 13.8 mph 25.3 mph N/A   Partly Cloudy
8:55 PM 78.8 °F - 59.0 °F 51% 29.75 in 10.0 mi SSE 17.3 mph 21.9 mph N/A   Partly Cloudy
9:15 PM 78.8 °F - 57.2 °F 47% 29.76 in 10.0 mi SSE 13.8 mph 18.4 mph N/A   Partly Cloudy
9:35 PM 78.8 °F - 57.2 °F 47% 29.76 in 10.0 mi SSE 15.0 mph 21.9 mph N/A   Partly Cloudy
9:55 PM 77.0 °F - 57.2 °F 50% 29.76 in 10.0 mi SSE 15.0 mph 19.6 mph N/A   Partly Cloudy
10:15 PM 77.0 °F - 57.2 °F 50% 29.76 in 10.0 mi South 12.7 mph 20.7 mph N/A   Partly Cloudy
10:35 PM 77.0 °F - 57.2 °F 50% 29.76 in 10.0 mi South 13.8 mph 18.4 mph N/A   Partly Cloudy
10:55 PM 77.0 °F - 57.2 °F 50% 29.77 in 10.0 mi South 13.8 mph 21.9 mph N/A   Clear
11:15 PM 75.2 °F - 57.2 °F 53% 29.77 in 10.0 mi SSE 11.5 mph 18.4 mph N/A   Partly Cloudy
11:55 PM 75.2 °F - 62.6 °F 65% 29.77 in 10.0 mi South 12.7 mph 19.6 mph N/A   Scattered Clouds